Terug naar catalogus

DELTA 1 DEB

ActiefLEO
NORAD 7179·DEBRIS·🇺🇸 United States

Gelanceerd Nov 6, 1973 vanaf Vandenberg Space Force Base

Loading…

Volgende Passages (komende 24 uur)

TLE

VersSource: Space-Track

Epoch: Sep 14, 2026, 09:44 UTC

1 07179U 73086EQ  26257.40605648  .00020461  00000-0  80772-2 0  9992
2 07179 102.6051 326.7801 0036580 213.3407 208.2740 14.28716728502837

Volg DELTA 1 DEB in realtime met AllMySat

Download on the App Store